BEIDOU 7

Last updated on May 15, 2019, 3:07 a.m. UTC

1 37256U 10068A   19133.94852700 -.00000220  00000-0  10000-3 0  9999
2 37256  52.1329 303.0693 0065789 203.0142 186.2896  1.00281164 30824
UTC
Height (km)
Latitude
Longitude
Inclination
Orbital Period
UTC large
Height (km)
Speed (km/s)
/
Latitude / Longitude
Inclination (degrees)
Orbital Period (minutes)
Azimuth
Elevation
Range (km)
Doppler Factor
iOS Compass Heading
iOS Angle

Next 30 passes for location: Hong Kong

Rise time Rise Azimuth (degrees) Set time Set Azimuth (degrees) Duration Max altitude (degrees)

No matching passes for this satellites